Bellingham, WA

10:20 PM PDT on March 26, 2017 (GMT -0700)
Bellingham International

Weather History for KBLI - May, 2013

Change the Weather History Date:

Friday, May 31, 2013

  Actual Average Record
Temperature  
Mean Temperature 56 °F 57 °F  
Max Temperature 65 °F 65 °F 81 °F (1964)
Min Temperature 47 °F 48 °F 34 °F (1953)
Degree Days  
Heating Degree Days 9 8  
Month to date heating degree days 286 344  
Cooling Degree Days 0 0  
Month to date cooling degree days 0 0  
Year to date cooling degree days 0 0  
Growing Degree Days 7 (Base 50)    
Moisture  
Dew Point 48 °F    
Average Humidity 70    
Maximum Humidity 96    
Minimum Humidity 44    
Precipitation  
Precipitation T in 0.08 in 1.36 in (1977)
Month to date precipitation 2.57 2.48  
Year to date precipitation 13.24 16.08  
Sea Level Pressure  
Sea Level Pressure 30.31 in    
Wind  
Wind Speed 3 mph (South)    
Max Wind Speed 10 mph    
Max Gust Speed 14 mph    
Visibility 10 miles    
Events      
T = Trace of Precipitation, MM = Missing Value Source: NWS Daily Summary

Daily Weather History Graph

Daily Weather History Graph

Search for Another Location

Airport or City:

Trip Planner

Search our weather history database for the weather conditions in past years. The results will help you decide how hot, cold, wet, or windy it might be!

Date:

Astronomy

May. 31, 2013 Rise Set
Actual Time 5:11 AM PDT 9:04 PM PDT
Civil Twilight 4:31 AM PDT 9:45 PM PDT
Nautical Twilight 3:35 AM PDT 10:41 PM PDT
Astronomical Twilight 2:07 AM PDT 12:11 AM PDT
Moon 1:16 AM PDT (5/31) 1:00 PM PDT (5/31)
Length of Visible Light 17h 14m
Length of Day
15h 52m
Waning Gibbous, 50% of the Moon is Illuminated
May 31
Waning Gibbous
May 31
Last Quarter
Jun 8
New
Jun 16
First Quarter
Jun 23
Full

Hourly Weather History & Observations

Time (PDT) Temp. Dew Point Humidity Pressure Visibility Wind Dir Wind Speed Gust Speed Precip Events Conditions
12:32 AM 51.8 °F 51.8 °F 100% 30.24 in 4.0 mi Calm Calm - N/A   Overcast
12:46 AM 51.8 °F 51.8 °F 100% 30.24 in 9.0 mi Calm Calm - N/A   Overcast
12:53 AM 52.0 °F 50.0 °F 93% 30.27 in 10.0 mi Calm Calm - N/A   Overcast
1:01 AM 51.8 °F 51.8 °F 100% 30.24 in 10.0 mi Calm Calm - N/A   Overcast
1:53 AM 52.0 °F 50.0 °F 93% 30.27 in 10.0 mi Calm Calm - 0.00 in   Overcast
2:53 AM 51.1 °F 48.9 °F 92% 30.28 in 10.0 mi Variable 4.6 mph - N/A   Overcast
3:35 AM 51.8 °F 48.2 °F 88% 30.27 in 10.0 mi South 6.9 mph - N/A   Overcast
3:53 AM 52.0 °F 48.9 °F 89% 30.29 in 10.0 mi South 4.6 mph - N/A   Overcast
4:53 AM 51.1 °F 48.9 °F 92% 30.30 in 10.0 mi Calm Calm - N/A   Overcast
5:53 AM 51.1 °F 50.0 °F 96% 30.32 in 10.0 mi Calm Calm - N/A   Overcast
6:53 AM 52.0 °F 50.0 °F 93% 30.33 in 10.0 mi Calm Calm - N/A   Overcast
7:53 AM 53.1 °F 48.0 °F 83% 30.35 in 10.0 mi Variable 4.6 mph - N/A   Overcast
8:53 AM 53.1 °F 48.9 °F 86% 30.36 in 10.0 mi South 9.2 mph - N/A   Overcast
9:01 AM 53.6 °F 48.2 °F 82% 30.34 in 10.0 mi South 6.9 mph - N/A   Overcast
9:53 AM 55.9 °F 48.9 °F 77% 30.37 in 10.0 mi SSE 8.1 mph - N/A   Overcast
10:53 AM 55.0 °F 48.0 °F 77% 30.37 in 10.0 mi South 9.2 mph - N/A   Scattered Clouds
11:53 AM 57.0 °F 48.0 °F 72% 30.37 in 10.0 mi SSE 6.9 mph - N/A   Overcast
12:53 PM 59.0 °F 46.9 °F 64% 30.36 in 10.0 mi South 4.6 mph - N/A   Overcast
1:53 PM 62.1 °F 46.9 °F 58% 30.36 in 10.0 mi SSE 3.5 mph - N/A   Mostly Cloudy
2:53 PM 62.1 °F 46.9 °F 58% 30.36 in 10.0 mi South 4.6 mph - N/A   Overcast
3:53 PM 64.0 °F 46.9 °F 54% 30.34 in 10.0 mi Variable 4.6 mph - N/A   Clear
4:53 PM 64.0 °F 43.0 °F 46% 30.34 in 10.0 mi Variable 4.6 mph - N/A   Clear
5:53 PM 63.0 °F 41.0 °F 45% 30.32 in 10.0 mi Variable 3.5 mph - N/A   Clear
6:53 PM 63.0 °F 42.1 °F 46% 30.31 in 10.0 mi WSW 3.5 mph - N/A   Clear
7:53 PM 61.0 °F 43.0 °F 52% 30.31 in 10.0 mi Calm Calm - N/A   Clear
8:53 PM 53.1 °F 46.9 °F 80% 30.30 in 10.0 mi Calm Calm - N/A   Clear
9:53 PM 51.1 °F 46.0 °F 83% 30.30 in 10.0 mi Calm Calm - N/A   Clear
10:53 PM 50.0 °F 46.9 °F 89% 30.28 in 10.0 mi Calm Calm - N/A   Clear
11:53 PM 48.0 °F 45.0 °F 89% 30.28 in 10.0 mi Calm Calm - N/A   Clear